Time,TemperatureF,DewpointF,PressureIn,WindDirection,WindDirectionDegrees,WindSpeedMPH,WindSpeedGustMPH,Humidity,HourlyPrecipIn,Conditions,Clouds,dailyrainin,SoftwareType,DateUTC
2013-01-18 00:05:00,27.0,26.0,30.06,WSW,243,0.0,0.0,95,0.00,,,0.00,weatherlink.com 1.10,2013-01-18 05:05:00,
2013-01-18 00:20:00,26.4,25.0,30.07,South,181,0.0,0.0,93,0.00,,,0.00,weatherlink.com 1.10,2013-01-18 05:20:00,
2013-01-18 00:35:00,26.0,24.0,30.08,North,1,0.0,0.0,92,0.00,,,0.00,weatherlink.com 1.10,2013-01-18 05:35:00,
2013-01-18 00:50:00,25.5,24.0,30.09,SW,221,0.0,0.0,93,0.00,,,0.00,weatherlink.com 1.10,2013-01-18 05:50:00,
2013-01-18 01:05:00,25.1,23.0,30.09,WSW,254,0.0,0.0,91,0.00,,,0.00,weatherlink.com 1.10,2013-01-18 06:05:00,
2013-01-18 01:20:00,24.8,23.0,30.09,NNE,32,0.0,0.0,91,0.00,,,0.00,weatherlink.com 1.10,2013-01-18 06:20:00,
2013-01-18 01:35:00,24.4,22.0,30.10,NE,47,0.0,0.0,92,0.00,,,0.00,weatherlink.com 1.10,2013-01-18 06:35:00,
2013-01-18 01:50:00,24.4,21.0,30.11,NNE,13,0.0,0.0,88,0.00,,,0.00,weatherlink.com 1.10,2013-01-18 06:50:00,
2013-01-18 02:05:00,24.4,21.0,30.12,East,98,0.0,0.0,88,0.00,,,0.00,weatherlink.com 1.10,2013-01-18 07:05:00,
2013-01-18 02:20:00,24.3,22.0,30.12,ENE,69,0.0,0.0,89,0.00,,,0.00,weatherlink.com 1.10,2013-01-18 07:20:00,
2013-01-18 02:35:00,23.6,21.0,30.12,ENE,60,0.0,0.0,91,0.00,,,0.00,weatherlink.com 1.10,2013-01-18 07:35:00,
2013-01-18 02:50:00,23.5,21.0,30.12,North,349,0.0,0.0,91,0.00,,,0.00,weatherlink.com 1.10,2013-01-18 07:50:00,
2013-01-18 03:05:00,23.3,21.0,30.12,North,349,0.0,0.0,92,0.00,,,0.00,weatherlink.com 1.10,2013-01-18 08:05:00,
2013-01-18 03:20:00,23.4,21.0,30.13,East,98,0.0,0.0,91,0.00,,,0.00,weatherlink.com 1.10,2013-01-18 08:20:00,
2013-01-18 03:35:00,23.4,22.0,30.13,East,96,0.0,0.0,92,0.00,,,0.00,weatherlink.com 1.10,2013-01-18 08:35:00,
2013-01-18 03:50:00,23.4,21.0,30.13,North,349,0.0,0.0,91,0.00,,,0.00,weatherlink.com 1.10,2013-01-18 08:50:00,
2013-01-18 04:05:00,23.4,21.0,30.12,NW,304,0.0,0.0,91,0.00,,,0.00,weatherlink.com 1.10,2013-01-18 09:05:00,
2013-01-18 04:20:00,23.5,21.0,30.13,South,188,0.0,0.0,91,0.00,,,0.00,weatherlink.com 1.10,2013-01-18 09:20:00,
2013-01-18 04:35:00,23.3,21.0,30.12,NE,37,0.0,0.0,91,0.00,,,0.00,weatherlink.com 1.10,2013-01-18 09:35:00,
2013-01-18 04:50:00,23.1,21.0,30.13,NE,40,0.0,0.0,91,0.00,,,0.00,weatherlink.com 1.10,2013-01-18 09:50:00,
2013-01-18 05:05:00,23.0,21.0,30.13,North,2,0.0,0.0,91,0.00,,,0.00,weatherlink.com 1.10,2013-01-18 10:05:00,
2013-01-18 05:20:00,22.9,21.0,30.13,North,2,0.0,0.0,91,0.00,,,0.00,weatherlink.com 1.10,2013-01-18 10:20:00,
2013-01-18 05:35:00,22.6,20.0,30.13,North,1,0.0,0.0,90,0.00,,,0.00,weatherlink.com 1.10,2013-01-18 10:35:00,
2013-01-18 05:50:00,22.6,20.0,30.14,North,6,0.0,0.0,90,0.00,,,0.00,weatherlink.com 1.10,2013-01-18 10:50:00,
2013-01-18 06:05:00,22.7,20.0,30.14,North,6,0.0,0.0,89,0.00,,,0.00,weatherlink.com 1.10,2013-01-18 11:05:00,
2013-01-18 06:21:00,22.7,20.0,30.14,North,6,0.0,0.0,89,0.00,,,0.00,weatherlink.com 1.10,2013-01-18 11:21:00,
2013-01-18 06:35:00,22.5,20.0,30.14,North,6,0.0,0.0,89,0.00,,,0.00,weatherlink.com 1.10,2013-01-18 11:35:00,
2013-01-18 06:51:00,22.5,20.0,30.15,North,6,0.0,0.0,89,0.00,,,0.00,weatherlink.com 1.10,2013-01-18 11:51:00,
2013-01-18 07:06:00,22.3,20.0,30.16,North,6,0.0,0.0,90,0.00,,,0.00,weatherlink.com 1.10,2013-01-18 12:06:00,
2013-01-18 07:21:00,22.1,19.0,30.17,North,6,0.0,0.0,89,0.00,,,0.00,weatherlink.com 1.10,2013-01-18 12:21:00,
2013-01-18 07:36:00,22.4,20.0,30.18,North,6,0.0,0.0,89,0.00,,,0.00,weatherlink.com 1.10,2013-01-18 12:36:00,
2013-01-18 07:51:00,22.2,20.0,30.18,North,6,0.0,0.0,89,0.00,,,0.00,weatherlink.com 1.10,2013-01-18 12:51:00,
2013-01-18 08:06:00,22.3,20.0,30.19,North,6,0.0,0.0,90,0.00,,,0.00,weatherlink.com 1.10,2013-01-18 13:06:00,
2013-01-18 08:21:00,22.6,20.0,30.20,North,6,0.0,0.0,91,0.00,,,0.00,weatherlink.com 1.10,2013-01-18 13:21:00,
2013-01-18 08:36:00,22.7,21.0,30.21,North,6,0.0,0.0,92,0.00,,,0.00,weatherlink.com 1.10,2013-01-18 13:36:00,
2013-01-18 08:51:00,23.5,22.0,30.23,North,6,0.0,0.0,93,0.00,,,0.00,weatherlink.com 1.10,2013-01-18 13:51:00,
2013-01-18 09:06:00,24.6,23.0,30.23,North,6,0.0,0.0,94,0.00,,,0.00,weatherlink.com 1.10,2013-01-18 14:06:00,
2013-01-18 09:21:00,25.8,24.0,30.24,North,6,0.0,0.0,92,0.00,,,0.00,weatherlink.com 1.10,2013-01-18 14:21:00,
2013-01-18 09:36:00,27.3,25.0,30.25,North,6,0.0,0.0,92,0.00,,,0.00,weatherlink.com 1.10,2013-01-18 14:36:00,
2013-01-18 09:51:00,28.0,26.0,30.25,West,259,0.0,0.0,92,0.00,,,0.00,weatherlink.com 1.10,2013-01-18 14:51:00,
2013-01-18 10:06:00,27.3,26.0,30.28,SW,217,0.0,0.0,93,0.00,,,0.00,weatherlink.com 1.10,2013-01-18 15:06:00,
2013-01-18 10:21:00,27.6,26.0,30.29,SW,231,0.0,0.0,92,0.00,,,0.00,weatherlink.com 1.10,2013-01-18 15:21:00,
2013-01-18 10:36:00,29.0,27.0,30.29,SSW,204,0.0,0.0,91,0.00,,,0.00,weatherlink.com 1.10,2013-01-18 15:36:00,
2013-01-18 10:51:00,30.2,28.0,30.29,SSW,204,0.0,0.0,90,0.00,,,0.00,weatherlink.com 1.10,2013-01-18 15:51:00,
2013-01-18 11:06:00,32.1,29.0,30.28,SSW,203,0.0,3.0,88,0.01,,,0.01,weatherlink.com 1.10,2013-01-18 16:06:00,
2013-01-18 11:21:00,31.4,28.0,30.28,SSW,203,2.0,4.0,88,0.02,,,0.02,weatherlink.com 1.10,2013-01-18 16:21:00,
2013-01-18 11:36:00,32.2,30.0,30.29,SSW,203,1.0,3.0,90,0.04,,,0.04,weatherlink.com 1.10,2013-01-18 16:36:00,
2013-01-18 11:51:00,31.9,28.0,30.28,SSW,203,0.0,3.0,86,0.06,,,0.06,weatherlink.com 1.10,2013-01-18 16:51:00,
2013-01-18 12:07:00,32.6,29.0,30.27,SSW,193,0.0,4.0,87,0.06,,,0.07,weatherlink.com 1.10,2013-01-18 17:07:00,
2013-01-18 12:22:00,33.5,27.0,30.26,SSW,193,0.0,2.0,76,0.05,,,0.07,weatherlink.com 1.10,2013-01-18 17:22:00,
2013-01-18 12:37:00,34.4,30.0,30.26,SSW,193,2.0,2.0,84,0.04,,,0.08,weatherlink.com 1.10,2013-01-18 17:37:00,
2013-01-18 12:52:00,35.0,31.0,30.26,SSW,193,0.0,2.0,85,0.03,,,0.09,weatherlink.com 1.10,2013-01-18 17:52:00,
2013-01-18 13:07:00,35.6,31.0,30.26,SSW,193,0.0,3.0,84,0.02,,,0.09,weatherlink.com 1.10,2013-01-18 18:07:00,
2013-01-18 13:22:00,36.0,31.0,30.25,SSW,210,2.0,4.0,83,0.03,,,0.10,weatherlink.com 1.10,2013-01-18 18:22:00,
2013-01-18 13:37:00,36.5,31.0,30.25,WSW,246,3.0,4.0,79,0.05,,,0.13,weatherlink.com 1.10,2013-01-18 18:37:00,
2013-01-18 13:52:00,37.0,30.0,30.25,WSW,238,0.0,4.0,76,0.07,,,0.16,weatherlink.com 1.10,2013-01-18 18:52:00,
2013-01-18 14:07:00,38.3,31.0,30.25,SSW,206,0.0,3.0,74,0.08,,,0.18,weatherlink.com 1.10,2013-01-18 19:07:00,
2013-01-18 14:22:00,39.0,32.0,30.25,SSW,200,2.0,3.0,75,0.11,,,0.21,weatherlink.com 1.10,2013-01-18 19:22:00,
2013-01-18 14:37:00,38.5,30.0,30.25,SSW,207,2.0,5.0,72,0.11,,,0.24,weatherlink.com 1.10,2013-01-18 19:37:00,
2013-01-18 14:52:00,38.9,29.0,30.25,SW,224,4.0,5.0,68,0.10,,,0.26,weatherlink.com 1.10,2013-01-18 19:52:00,
2013-01-18 15:07:00,39.3,29.0,30.25,SW,218,1.0,3.0,67,0.10,,,0.29,weatherlink.com 1.10,2013-01-18 20:07:00,
2013-01-18 15:22:00,39.7,29.0,30.25,SW,229,3.0,4.0,66,0.09,,,0.30,weatherlink.com 1.10,2013-01-18 20:22:00,
2013-01-18 15:37:00,39.7,29.0,30.25,SW,220,2.0,4.0,66,0.08,,,0.32,weatherlink.com 1.10,2013-01-18 20:37:00,
2013-01-18 16:07:00,39.9,29.0,30.26,SSW,205,2.0,3.0,64,0.05,,,0.34,weatherlink.com 1.10,2013-01-18 21:07:00,
2013-01-18 16:22:00,39.7,28.0,30.25,SSW,205,2.0,3.0,64,0.05,,,0.35,weatherlink.com 1.10,2013-01-18 21:22:00,
2013-01-18 16:37:00,39.5,29.0,30.26,SSW,205,1.0,3.0,65,0.03,,,0.35,weatherlink.com 1.10,2013-01-18 21:37:00,
2013-01-18 16:52:00,38.6,28.0,30.26,SSW,205,0.0,3.0,67,0.03,,,0.36,weatherlink.com 1.10,2013-01-18 21:52:00,
2013-01-18 17:07:00,38.1,27.0,30.26,SSW,205,0.0,2.0,65,0.02,,,0.36,weatherlink.com 1.10,2013-01-18 22:07:00,
2013-01-18 17:22:00,37.3,28.0,30.26,SSW,205,0.0,0.0,69,0.02,,,0.37,weatherlink.com 1.10,2013-01-18 22:22:00,
2013-01-18 17:37:00,36.5,29.0,30.26,SSW,205,0.0,0.0,73,0.01,,,0.37,weatherlink.com 1.10,2013-01-18 22:37:00,
2013-01-18 17:52:00,35.9,31.0,30.26,SSW,205,0.0,1.0,81,0.01,,,0.37,weatherlink.com 1.10,2013-01-18 22:52:00,
2013-01-18 18:07:00,35.6,30.0,30.26,SSW,205,0.0,2.0,80,0.01,,,0.37,weatherlink.com 1.10,2013-01-18 23:07:00,
2013-01-18 18:22:00,35.3,30.0,30.27,SSW,205,0.0,3.0,81,0.00,,,0.37,weatherlink.com 1.10,2013-01-18 23:22:00,
2013-01-18 18:37:00,34.8,30.0,30.27,SSW,205,0.0,2.0,81,0.00,,,0.37,weatherlink.com 1.10,2013-01-18 23:37:00,
2013-01-18 18:52:00,34.9,27.0,30.28,SSW,205,1.0,3.0,72,0.00,,,0.37,weatherlink.com 1.10,2013-01-18 23:52:00,
2013-01-18 19:07:00,34.6,27.0,30.27,WNW,298,2.0,3.0,75,0.00,,,0.37,weatherlink.com 1.10,2013-01-19 00:07:00,
2013-01-18 19:22:00,34.8,27.0,30.27,North,359,1.0,4.0,73,0.00,,,0.37,weatherlink.com 1.10,2013-01-19 00:22:00,
2013-01-18 19:37:00,34.8,27.0,30.27,NNE,32,2.0,3.0,73,0.00,,,0.37,weatherlink.com 1.10,2013-01-19 00:37:00,
2013-01-18 19:52:00,34.6,27.0,30.27,NNE,25,1.0,4.0,74,0.00,,,0.37,weatherlink.com 1.10,2013-01-19 00:52:00,
2013-01-18 20:07:00,34.6,27.0,30.27,NNE,25,2.0,3.0,73,0.00,,,0.37,weatherlink.com 1.10,2013-01-19 01:07:00,
2013-01-18 20:22:00,34.8,27.0,30.27,NNE,25,0.0,3.0,74,0.00,,,0.37,weatherlink.com 1.10,2013-01-19 01:22:00,
2013-01-18 20:38:00,35.7,26.0,30.27,NE,41,5.0,7.0,68,0.00,,,0.37,weatherlink.com 1.10,2013-01-19 01:38:00,
2013-01-18 20:52:00,37.1,26.0,30.27,NNE,29,4.0,6.0,64,0.00,,,0.37,weatherlink.com 1.10,2013-01-19 01:52:00,
2013-01-18 21:07:00,37.0,26.0,30.26,NNE,31,4.0,7.0,65,0.00,,,0.37,weatherlink.com 1.10,2013-01-19 02:07:00,
2013-01-18 21:22:00,37.2,25.0,30.26,NE,34,4.0,6.0,62,0.00,,,0.37,weatherlink.com 1.10,2013-01-19 02:22:00,
2013-01-18 21:37:00,37.4,26.0,30.26,NE,41,2.0,5.0,63,0.00,,,0.37,weatherlink.com 1.10,2013-01-19 02:37:00,
2013-01-18 21:52:00,36.6,25.0,30.27,NNE,24,3.0,4.0,63,0.00,,,0.37,weatherlink.com 1.10,2013-01-19 02:52:00,
2013-01-18 22:07:00,36.5,25.0,30.27,NNE,16,4.0,5.0,63,0.00,,,0.37,weatherlink.com 1.10,2013-01-19 03:07:00,
2013-01-18 22:22:00,37.3,24.0,30.27,North,1,3.0,6.0,60,0.00,,,0.37,weatherlink.com 1.10,2013-01-19 03:22:00,
2013-01-18 22:37:00,37.1,25.0,30.26,NNE,24,4.0,6.0,61,0.00,,,0.37,weatherlink.com 1.10,2013-01-19 03:37:00,
2013-01-18 22:52:00,36.5,26.0,30.26,NNE,23,2.0,5.0,66,0.00,,,0.37,weatherlink.com 1.10,2013-01-19 03:52:00,
2013-01-18 23:07:00,36.2,25.0,30.25,NNE,25,3.0,5.0,65,0.00,,,0.37,weatherlink.com 1.10,2013-01-19 04:07:00,
2013-01-18 23:22:00,36.4,24.0,30.25,NE,37,5.0,6.0,61,0.00,,,0.37,weatherlink.com 1.10,2013-01-19 04:22:00,
2013-01-18 23:38:00,36.5,26.0,30.24,South,176,1.0,6.0,66,0.00,,,0.37,weatherlink.com 1.10,2013-01-19 04:38:00,
2013-01-18 23:53:00,36.2,26.0,30.24,NNE,16,0.0,6.0,67,0.00,,,0.37,weatherlink.com 1.10,2013-01-19 04:53:00,